C/2015 V1 ( PanSTARRS )

Japanese version
Home page
Updated on January 17, 2017

---------------------------------------------------------------------

* Profile

Discovery Date November 2, 2015
Magnitude 20.2 mag
Discoverer Pan-STARRS 1 telescope (Haleakala)

* Pictures

* Orbital Elements

Epoch 2018 Jan. 2.0 TT = JDT 2458120.5
T 2017 Dec. 17.73823 TT                                 MPCW
q   4.2668876            (2000.0)            P               Q
z  -0.0001196      Peri.  179.63764     +0.95387459     +0.22990883
 +/-0.0000012      Node   197.19396     +0.27376417     -0.40229648
e   1.0005104      Incl.  139.22918     +0.12319270     -0.88617124
From 308 observations 2015 Nov. 2-2016 Nov. 10, mean residual 0".4.

* Finding Charts

* Magnitudes Graph

        m1 = 6.0 + 5 log d + 10.0 log r

---------------------------------------------------------------------

The orbital elements are published on M.P.E.C. 2016-V116.
The charts are made with StellaNavigator Ver.8 (AstroArts).
The magnitudes graphs are made with Comet for Windows.

---------------------------------------------------------------------

Copyright(C) Seiichi Yoshida (comet@aerith.net). All rights reserved.